Flag for Czech Republic Weather past 2 weeks in Liberec, Czech Republic

Now
60 °F

Overcast.


Feels Like: 60 °F
Forecast: 51 / 64 °F
Wind: 1 mph from West

Location: Liberec

Current Time: Sep 30, 2014 at 8:03:26 PM

Latest Report: Sep 30, 2014 at 7:00 PM


Visibility: 6 mi

Pressure: 30.27 "Hg

Humidity: 92%

Dew point: 57 °F

Location of LiberecLocation

Historic Weather in Liberec — Graph

°F

Liberec temperature yesterday

Maximum temperature yesterday: 67 °F (at 4:00 PM)
Minimum temperature yesterday: 50 °F (at 5:00 AM)
Average temperature yesterday: 58 °F

Past Weeks' High & Low Weather Summary

 TemperatureHumidityPressure
High75 °F (Sep 16, 1:00 PM)100% (Sep 21, 7:00 AM)30.44 "Hg (Sep 21, 7:00 AM)
Low35 °F (Sep 24, 2:00 AM)41% (Sep 16, 1:00 PM)29.82 "Hg (Sep 21, 6:00 PM)
Average56 °F82%30.08 "Hg
* Reported Sep 15 6:00 PM — Sep 30 6:00 PM, Liberec, Weather by CustomWeather, © 2014

Note: Actual official high and low records may vary slightly from our data, if they occured in-between our weather recording intervals... More about our weather records

Advertising

Liberec weather history for previous 24 hours

 ConditionsComfort  
Time TempWeatherWind HumidityBarometerVisibility
6:00 PM
Sep 30
62 °FMild.1 mph87%30.24 "Hg7 mi
5:00 PM64 °FOvercast.1 mph80%30.24 "Hg9 mi
4:00 PM64 °FOvercast.No wind79%30.24 "Hg9 mi
3:00 PM64 °FOvercast.1 mph76%30.24 "Hg9 mi
2:00 PM65 °FOvercast.1 mph71%30.24 "Hg11 mi
1:00 PM65 °FOvercast.2 mph73%30.24 "Hg9 mi
12:00 PM65 °FOvercast.2 mph70%30.24 "Hg10 mi
11:00 AM62 °FPartly sunny.2 mph77%30.25 "Hg10 mi
10:00 AM58 °FOvercast.2 mph84%30.26 "Hg9 mi
9:00 AM57 °FOvercast.2 mph89%30.26 "Hg7 mi
8:00 AM55 °FOvercast.1 mph95%30.27 "Hg7 mi
7:00 AM54 °FFog.1 mph96%30.27 "Hg6 mi
6:00 AM53 °FFog.2 mph97%30.27 "Hg6 mi
5:00 AM53 °FFog.2 mph97%30.27 "Hg4 mi
4:00 AM52 °FFog.2 mph96%30.27 "Hg4 mi
3:00 AM53 °FFog.1 mph95%30.27 "Hg4 mi
2:00 AM55 °FCool.2 mph92%30.27 "Hg6 mi
1:00 AM55 °FCool.2 mph91%30.27 "Hg6 mi
12:00 AM57 °FCool.2 mph87%30.27 "Hg9 mi
11:00 PM
Sep 29
56 °FCool.2 mph90%30.28 "Hg6 mi
10:00 PM57 °FPassing clouds.2 mph90%30.27 "Hg6 mi
9:00 PM58 °FPassing clouds.3 mph86%30.27 "Hg7 mi
8:00 PM59 °FPassing clouds.2 mph86%30.27 "Hg11 mi
Weather by CustomWeather, © 2014

See weather overviewHow to use our weather pages